User: anonymous   Login
Location: Unspecified
(0.0000°N, 0.0000°E)
Time: 07:06:26
(UTC+00:00)
Language:

Tiangong 2 - Orbit

View from above orbital plane
View from above orbital plane
View from above satellite
View from above satellite

Ground track
Ground track

The orbit data is extracted from the following two-line orbital elements,

1 41765U 16057A   17176.61701772 +.00003763 +00000-0 +53788-4 0  9999
2 41765 042.7839 304.6092 0003948 293.0046 086.9451 15.57925907044304
Epoch (UTC): 25 June 2017 14:48:30
Eccentricity: 0.0003948
inclination: 42.7839°
perigee height: 391 km
apogee height: 396 km
right ascension of ascending node: 304.6092°
argument of perigee: 293.0046°
revolutions per day: 15.57925907
mean anomaly at epoch: 86.9451°
orbit number at epoch: 4430

The dashed part of the orbit path shows where the satellite is in the earth's shadow,  

DLR